Weather History for PADE - September, 2012

Change the Weather History Date:

Friday, September 7, 2012

  Actual Average (PAOT) Record (PAOT)
Temperature  
Mean Temperature 42 °F 46 °F  
Max Temperature 48 °F 51 °F 66 °F (2008)
Min Temperature 37 °F 42 °F 29 °F (1952)
Degree Days  
Heating Degree Days 22 19  
Month to date heating degree days 124  
Since 1 July heating degree days 862  
Cooling Degree Days 0    
Month to date cooling degree days  
Year to date cooling degree days  
Moisture  
Dew Point 37 °F    
Average Humidity 83    
Maximum Humidity 93    
Minimum Humidity 66    
Precipitation  
Precipitation 0.00 in 0.05 in 0.66 in (2006)
Month to date precipitation 0.39  
Year to date precipitation 7.27  
Snow  
Snow 0.00 in 0.00 in 0.50 in (1936)
Month to date snowfall 0.0  
Since 1 July snowfall 0.0  
Since 1 September snowfall 0.0  
Snow Depth -    
Sea Level Pressure  
Sea Level Pressure 29.93 in    
Wind  
Wind Speed 5 mph (SW)    
Max Wind Speed 9 mph    
Max Gust Speed -    
Visibility 10 miles    
Events      
T = Trace of Precipitation, MM = Missing Value Source: NWS Daily Summary

Daily Weather History Graph

Daily Weather History Graph

Search for Another Location

Airport or City:

Trip Planner

Search our weather history database for the weather conditions in past years. The results will help you decide how hot, cold, wet, or windy it might be!

Date:

Astronomy

Sep. 07, 2012 Rise Set
Actual Time 7:47 AM AKDT 9:47 PM AKDT
Civil Twilight 6:52 AM AKDT 10:42 PM AKDT
Nautical Twilight 5:36 AM AKDT 11:56 PM AKDT
Astronomical Twilight 3:11 AM AKDT 2:03 AM AKDT
Moon 10:27 PM AKDT 6:15 PM AKDT
Length of Visible Light 15h 49m
Length of Day
13h 59m
Waning Gibbous, 57% of the Moon is Illuminated
Sep 7
Waning Gibbous
Sep 8
Last Quarter
Sep 15
New
Sep 22
First Quarter
Sep 29
Full

Hourly Weather History & Observations

Time (AKDT) Temp. Windchill Dew Point Humidity Pressure Visibility Wind Dir Wind Speed Gust Speed Precip Events Conditions
12:30 AM 42.8 °F 39.3 °F 39.2 °F 87% 29.87 in 10.0 mi SSW 5.8 mph - N/A   Overcast
12:39 AM 42.8 °F 39.3 °F 39.2 °F 87% 29.87 in 10.0 mi SSW 5.8 mph - N/A   Overcast
12:53 AM 42.1 °F 39.2 °F 39.0 °F 89% 29.87 in 10.0 mi SSW 4.6 mph - N/A   Overcast
1:36 AM 41.0 °F 36.4 °F 39.2 °F 93% 29.88 in 10.0 mi SSW 6.9 mph - N/A   Overcast
1:53 AM 41.0 °F 37.1 °F 39.0 °F 93% 29.89 in 10.0 mi SSW 5.8 mph - N/A   Overcast
2:04 AM 41.0 °F 39.0 °F 39.2 °F 93% 29.88 in 10.0 mi SSW 3.5 mph - N/A   Overcast
2:53 AM 39.9 °F 37.8 °F 37.9 °F 93% 29.89 in 10.0 mi South 3.5 mph - N/A   Overcast
3:53 AM 37.9 °F 34.4 °F 36.0 °F 93% 29.90 in 10.0 mi SSW 4.6 mph - N/A   Overcast
4:53 AM 37.0 °F 34.5 °F 35.1 °F 93% 29.91 in 10.0 mi SSW 3.5 mph - N/A   Overcast
5:53 AM 37.9 °F - 35.1 °F 89% 29.91 in 10.0 mi Calm Calm - N/A   Overcast
6:53 AM 37.9 °F - 36.0 °F 93% 29.91 in 10.0 mi Calm Calm - N/A   Overcast
7:53 AM 37.9 °F - 36.0 °F 93% 29.91 in 10.0 mi Calm Calm - N/A   Overcast
8:53 AM 37.9 °F - 35.1 °F 89% 29.92 in 10.0 mi Calm Calm - N/A   Overcast
10:53 AM 42.1 °F - 37.9 °F 85% 29.94 in 10.0 mi Calm Calm - N/A   Overcast
11:53 AM 44.1 °F - 37.9 °F 79% 29.95 in 10.0 mi Calm Calm - N/A   Overcast
12:53 PM 46.0 °F - 37.9 °F 73% 29.96 in 10.0 mi Calm Calm - N/A   Scattered Clouds
1:25 PM 46.4 °F - 37.4 °F 71% 29.95 in 10.0 mi Calm Calm - N/A   Mostly Cloudy
1:53 PM 46.0 °F 43.9 °F 37.9 °F 73% 29.96 in 10.0 mi NE 4.6 mph - N/A   Overcast
2:12 PM 46.4 °F 43.5 °F 37.4 °F 71% 29.95 in 10.0 mi NE 5.8 mph - N/A   Scattered Clouds
2:53 PM 46.9 °F - 36.0 °F 66% 29.96 in 10.0 mi NNE 5.8 mph - N/A   Partly Cloudy
3:53 PM 48.0 °F - 37.0 °F 66% 29.96 in 10.0 mi NNE 8.1 mph - N/A   Clear
4:53 PM 48.0 °F - 37.0 °F 66% 29.95 in 10.0 mi North 8.1 mph - N/A   Clear
5:53 PM 48.0 °F - 37.9 °F 68% 29.95 in 10.0 mi NNW 8.1 mph - N/A   Clear
6:53 PM 46.9 °F - 39.0 °F 74% 29.96 in 10.0 mi North 8.1 mph - N/A   Partly Cloudy
7:53 PM 46.0 °F 42.5 °F 37.9 °F 73% 29.96 in 10.0 mi NNW 6.9 mph - N/A   Partly Cloudy
8:53 PM 44.1 °F 40.1 °F 39.0 °F 82% 29.96 in 10.0 mi NNW 6.9 mph - N/A   Mostly Cloudy
9:53 PM 43.0 °F - 39.0 °F 86% 29.96 in 10.0 mi Calm Calm - N/A   Overcast
10:53 PM 39.9 °F 35.8 °F 37.0 °F 89% 29.98 in 10.0 mi SSW 5.8 mph - N/A   Overcast
11:31 PM 39.2 °F 33.6 °F 35.6 °F 87% 29.98 in 10.0 mi SSW 8.1 mph - N/A   Overcast
11:41 PM 39.2 °F 33.0 °F 35.6 °F 87% 29.98 in 10.0 mi SSW 9.2 mph - N/A   Overcast
11:53 PM 37.9 °F 32.7 °F 36.0 °F 93% 29.98 in 10.0 mi SSW 6.9 mph - N/A   Overcast